NG7N Weather Reports


time (UTC)temp
F
wind
direction
speed
knots
gust
knots
rain 1hr
in
rain 24hr
in
rain mn
in
humidity
%
barometer
mb
20260507023928 55 179 0.9 4.3 0.00 0.00 0.00 81 1020.4
20260507023429 56 0 0.0 3.5 0.00 0.00 0.00 81 1020.4
20260507022929 56 0 0.0 2.6 0.00 0.00 0.00 81 1020.4
20260507022428 56 190 1.7 4.3 0.00 0.00 0.00 81 1020.4
20260507021929 56 160 1.7 3.5 0.00 0.00 0.00 81 1020.4
20260507021429 56 0 0.0 4.3 0.00 0.00 0.00 81 1020.4
20260507015428 56 167 0.9 6.1 0.00 0.00 0.00 81 1020.4
20260507014929 56 181 1.7 3.5 0.00 0.00 0.00 81 1020.4
20260507013929 56 133 0.9 5.2 0.00 0.00 0.00 81 1020.4
20260507012930 56 209 0.9 4.3 0.00 0.00 0.00 80 1020.4
20260507011429 56 183 1.7 4.3 0.00 0.00 0.00 81 1020.4
20260507010930 56 142 1.7 6.1 0.00 0.00 0.00 81 1020.4
20260507005931 56 182 0.9 3.5 0.00 0.00 0.00 81 1020.5
20260507003929 56 131 1.7 4.3 0.00 0.00 0.00 81 1020.5
20260507002929 56 161 2.6 5.2 0.00 0.00 0.00 80 1020.5
20260507001928 56 164 1.7 5.2 0.00 0.00 0.00 80 1020.5
20260507000928 56 149 3.5 6.1 0.00 0.00 0.00 80 1020.4
20260507000429 56 172 1.7 5.2 0.00 0.00 0.00 80 1020.4
20260506234428 56 162 2.6 5.2 0.00 0.00 0.00 80 1020.5
20260506233928 56 189 1.7 4.3 0.00 0.00 0.00 80 1020.5
20260506232928 56 224 1.7 7.8 0.00 0.00 0.00 79 1020.5
20260506232428 56 225 0.9 3.5 0.00 0.00 0.00 80 1020.5
20260506231928 56 194 2.6 5.2 0.00 0.00 0.00 80 1020.5
20260506225928 56 189 3.5 5.2 0.00 0.00 0.00 80 1020.8
20260506225429 56 156 1.7 5.2 0.00 0.00 0.00 80 1020.8
20260506222929 56 183 1.7 4.3 0.00 0.00 0.00 79 1020.9
20260506222428 56 0 0.0 4.3 0.00 0.00 0.00 79 1020.9
20260506221428 56 236 1.7 5.2 0.00 0.00 0.00 79 1020.9
20260506215928 56 189 2.6 4.3 0.00 0.00 0.00 78 1020.9
20260506214429 56 206 2.6 6.1 0.00 0.00 0.00 77 1020.9
20260506213928 56 188 1.7 5.2 0.00 0.00 0.00 77 1020.9
20260506211428 57 164 0.9 7.8 0.00 0.00 0.00 76 1020.9
20260506204928 58 211 1.7 5.2 0.00 0.00 0.00 75 1020.8
20260506203429 57 200 0.9 6.1 0.00 0.00 0.00 77 1020.8
20260506202929 57 203 1.7 6.1 0.00 0.00 0.00 77 1020.8
20260506202428 57 201 1.7 6.1 0.00 0.00 0.00 77 1020.8
20260506195930 56 178 1.7 9.6 0.00 0.00 0.00 78 1020.6
20260506192428 55 156 1.7 5.2 0.00 0.00 0.00 82 1020.6
20260506191428 54 162 1.7 6.1 0.00 0.00 0.00 83 1020.4
20260506190428 54 151 2.6 6.1 0.00 0.00 0.00 83 1020.4
20260506185929 55 185 2.6 6.1 0.00 0.00 0.00 83 1020.4
20260506183429 54 172 0.9 7.8 0.00 0.00 0.00 86 1020.5
20260506181057 53 187 0.9 10.4 0.00 0.00 0.00 88 1020.5
20260506180928 53 187 0.9 10.4 0.00 0.00 0.00 88 1020.5
20260506174928 53 164 2.6 9.6 0.00 0.00 0.00 90 1019.9
20260506174429 53 179 2.6 6.1 0.00 0.00 0.00 91 1020.0
20260506173428 53 156 3.5 6.1 0.00 0.00 0.00 92 1020.0
20260506172928 53 152 2.6 7.0 0.00 0.00 0.00 92 1020.3
20260506171428 52 144 0.9 6.1 0.00 0.00 0.00 93 1020.4
20260506170928 52 153 3.5 6.1 0.00 0.00 0.00 93 1020.4
20260506170428 52 165 2.6 5.2 0.00 0.00 0.00 93 1020.4
20260506165929 52 162 2.6 4.3 0.00 0.00 0.00 93 1020.1
20260506164928 52 179 1.7 4.3 0.00 0.00 0.00 93 1020.1
20260506163928 52 136 2.6 6.1 0.00 0.00 0.00 94 1020.2
20260506163428 52 168 0.9 4.3 0.00 0.00 0.00 94 1020.2
20260506162928 52 179 1.7 6.1 0.00 0.00 0.00 94 1019.8
20260506162428 52 176 2.6 5.2 0.00 0.00 0.00 94 1019.8
20260506161928 52 165 1.7 5.2 0.00 0.00 0.00 95 1019.8
20260506161428 52 172 0.9 4.3 0.00 0.00 0.00 95 1019.4
20260506155929 52 163 1.7 7.0 0.00 0.00 0.00 95 1019.4
20260506154929 52 188 1.7 7.0 0.00 0.00 0.00 95 1019.4
20260506154428 51 206 3.5 6.1 0.00 0.00 0.00 95 1019.7
20260506153929 51 229 2.6 6.1 0.00 0.00 0.00 95 1019.7
20260506153428 51 176 0.9 4.3 0.00 0.00 0.00 96 1019.7
20260506152928 51 198 2.6 6.1 0.00 0.00 0.00 95 1019.9
20260506152428 51 177 2.6 5.2 0.00 0.00 0.00 95 1019.9
20260506150928 51 206 0.9 5.2 0.00 0.00 0.00 95 1019.6
20260506145928 51 189 3.5 6.1 0.00 0.00 0.00 95 1019.4
20260506144928 51 169 2.6 7.8 0.00 0.00 0.00 95 1019.4
20260506143928 51 0 0.0 5.2 0.00 0.00 0.00 95 1019.5
20260506143429 51 176 2.6 5.2 0.00 0.00 0.00 95 1019.5
20260506142928 51 141 0.9 3.5 0.00 0.00 0.00 95 1019.5
20260506141928 51 161 2.6 5.2 0.00 0.00 0.00 94 1019.5
20260506140928 51 195 1.7 4.3 0.00 0.00 0.00 94 1019.3
20260506134928 51 183 2.6 4.3 0.00 0.00 0.00 94 1019.3
20260506131428 51 229 2.6 9.6 0.00 0.00 0.00 93 1019.2
20260506130428 51 232 2.6 8.7 0.00 0.00 0.00 92 1019.2
20260506125428 51 183 0.9 5.2 0.00 0.00 0.00 92 1018.8
20260506124928 51 183 2.6 5.2 0.00 0.00 0.00 92 1018.8
20260506122428 52 193 1.7 6.1 0.00 0.00 0.00 92 1018.7
20260506121428 52 0 0.0 4.3 0.00 0.00 0.00 92 1018.6
20260506120427 52 168 1.7 5.2 0.00 0.00 0.00 92 1018.6
20260506115928 52 202 0.9 5.2 0.00 0.00 0.00 91 1018.5
20260506113428 52 152 2.6 6.1 0.00 0.00 0.00 91 1018.3
20260506112927 52 156 2.6 5.2 0.00 0.00 0.00 91 1018.3
20260506112428 52 162 0.9 5.2 0.00 0.00 0.00 91 1018.3
20260506111928 52 176 2.6 5.2 0.00 0.00 0.00 91 1018.3
20260506111551 51 164 0.9 5.2 0.00 0.00 0.00 91 1018.3
20260506111428 51 164 0.9 5.2 0.00 0.00 0.00 91 1018.3
20260506110928 51 157 0.9 5.2 0.00 0.00 0.00 91 1018.3
20260506104928 51 0 0.0 3.5 0.00 0.00 0.00 92 1018.1
20260506103928 51 174 1.7 3.5 0.00 0.00 0.00 92 1018.1
20260506100928 51 226 2.6 4.3 0.00 0.00 0.00 91 1018.0
20260506094928 52 222 0.9 8.7 0.00 0.00 0.00 91 1017.8
20260506093428 52 222 1.7 5.2 0.00 0.00 0.00 91 1017.7
20260506092928 52 236 2.6 8.7 0.00 0.00 0.00 91 1017.7
20260506090928 52 227 3.5 9.6 0.00 0.00 0.00 90 1017.6
20260506085929 52 223 3.5 5.2 0.00 0.00 0.00 90 1017.3
20260506085428 52 208 1.7 9.6 0.00 0.00 0.00 89 1017.3
20260506083928 52 224 2.6 7.8 0.00 0.00 0.00 89 1017.3
20260506082927 53 225 2.6 6.1 0.00 0.00 0.00 89 1017.2
20260506071928 54 224 0.9 7.0 0.00 0.00 0.00 86 1016.8
20260506070928 54 214 1.7 5.2 0.00 0.00 0.00 86 1016.9
20260506070428 54 204 1.7 5.2 0.00 0.00 0.00 86 1016.9
20260506061927 56 196 0.9 4.3 0.00 0.00 0.00 85 1016.6
20260506060928 56 231 2.6 6.1 0.00 0.00 0.00 85 1016.2
20260506050927 58 192 1.7 5.2 0.00 0.00 0.00 82 1015.8
20260506044927 58 175 1.7 5.2 0.00 0.00 0.00 82 1015.7
20260506043928 59 184 1.7 4.3 0.00 0.00 0.00 81 1015.7
20260506041427 59 169 2.6 5.2 0.00 0.00 0.00 81 1015.7
20260506035928 59 163 0.9 3.5 0.00 0.00 0.00 80 1015.6
20260506034428 60 160 1.7 3.5 0.00 0.00 0.00 79 1015.4
20260506032928 60 231 0.9 4.3 0.00 0.00 0.00 78 1015.2
20260506031928 61 0 0.0 2.6 0.00 0.00 0.00 76 1015.2
20260506030927 62 0 0.0 1.7 0.00 0.00 0.00 75 1015.2